Torna al catalogo

SOLRAD 3/INJUN 1

AttivoScienzaLEO
NORAD 117·PAYLOAD·🇺🇸 United States

Lanciato Jun 29, 1961 da Cape Canaveral Space Force Station

Loading…

Prossimi Passaggi (prossime 24 ore)

TLE

AggiornatoSource: Space-Track

Epoca: Sep 7, 2026, 11:05 UTC

1 00117U 61015B   26250.46247792 -.00000056  00000-0  16205-4 0  9998
2 00117  66.8127 164.5572 0083664 242.5673 116.6879 13.90197880305492

Traccia SOLRAD 3/INJUN 1 in tempo reale con AllMySat

Download on the App Store